FENGYUN 1C DEB, 38829

Orbit data source: Space-Track

FENGYUN 1C DEB, 38829 is space debris in SSO originally from a launch on Mon, 10 May 1999 UTC launched from the Taiyaun Space Center, China (TSC). Fengyun 1C debris stems from the Chinese weather satellite Fengyun-1C, which was intentionally destroyed by a Chinese anti-satellite missile in 2007. This event dramatically increased the amount of space debris, with thousands of trackable fragments posing hazards to satellites and human spaceflight. The Fengyun 1C debris cloud has become a focal point in discussions about space sustainability and the need for international regulations to prevent the creation of new debris.

Loading next visibility...
Identifier
38829, 1999-025EVV
Orbit
SSO
Country
Flag of CNCN / PRC
Related business
Manufacturer
Unknown
Mission
Spacecraft
Bus & Motor
Unknown
Mass
Unknown
Launch date (UTC)
1999-05-10 (27 years ago)
Launch vehicle
Unknown
Launch site
Taiyaun Space Center, China (TSC)
Object type
Payload
Rocket body
Debris
Shape & HBR
Unknown shape, 0.1 m
Radar Cross Section
Small (<0.1 m²)

Expand to show TLE details & history
Last TLE update: 2 weeks ago

TLE from 2 weeks ago
0 FENGYUN 1C DEB
1 38829U 99025EVV 26134.97882117  .00000619  00000-0  37561-3 0  9995
2 38829  98.7398 151.5302 0039474 317.6754  42.1372 14.09541122662915
Epoch: 2026-05-14T23:29Z
TLE epoch observation values (Epoch: 2026-05-14T23:29:30.149Z)
Latitude
-0.00007°
Longitude
-73.56214°
Altitude
842.699 km
Speed
7.442 km/s
True Right ascension
10h 06m 07s
True Declination
0° 00' 00"
Sunlit
Object was in daylight at epoch
Visualization orbit readout
Latitude
Unknown
Longitude
Unknown
Altitude
Unknown
Speed
Unknown
Apparent Right ascension
Unknown
Apparent Declination
Unknown
Sunlit
N/A
Visualization observer readout
Local Sidereal Time
15:38:25
Azimuth
Unknown
Elevation
Unknown
Doppler factor
Unknown
Orbital elements
Apogee altitude
886.681 km
Perigee altitude
829.552 km
Semi-major axis
7,236.253 km
Eccentricity
0.00395
Inclination
98.7398°
RAAN
151.5302°
Arg. of periapsis
317.6754°
True anomaly
42.44179°
Mean anomaly
42.1372°
Eccentric anomaly
42.28938°
Mean motion
3.52592 °/min
Orbital period
102.1 mins
BSTAR
0.00037561
Loading maneuver chart data...
Computing Atmospheric mass density...
Loading historical data...
Loading historical data...
Loading historical data...
Loading historical data...
Loading historical data...
Loading historical data...
Loading historical data...

Documentation

Showing up to 5 results
|